Weather History for Liberia, Costa Rica

Change the Weather History Date:

Saturday, April 12, 2014

  Actual Average Record
Temperature  
Mean Temperature 88 °F -  
Max Temperature 97 °F 92 °F 98 °F (2004)
Min Temperature 78 °F 76 °F 68 °F (2012)
Cooling Degree Days 22    
Growing Degree Days 38 (Base 50)    
Moisture  
Dew Point 62 °F    
Average Humidity 39    
Maximum Humidity 58    
Minimum Humidity 23    
Precipitation  
Precipitation 0.00 in - - ()
Sea Level Pressure  
Sea Level Pressure 29.78 in    
Wind  
Wind Speed 20 mph ()    
Max Wind Speed 26 mph    
Max Gust Speed 37 mph    
Visibility 12.0 miles    
Events      
Averages and records for this station are not official NWS values.
T = Trace of Precipitation, MM = Missing Value Source: Averaged Metar Reports

Daily Weather History Graph

Daily Weather History Graph

Search for Another Location

Airport:

Trip Planner

Search our weather history database for the weather conditions in past years. The results will help you decide how hot, cold, wet, or windy it might be!

Date:

Astronomy

Apr. 12, 2014 Rise Set
Actual Time 5:32 AM CST 5:53 PM CST
Civil Twilight 5:11 AM CST 6:14 PM CST
Nautical Twilight 4:46 AM CST 6:39 PM CST
Astronomical Twilight 4:21 AM CST 7:04 PM CST
Moon 3:53 PM CST (4/12) 3:31 AM CST (4/12)
Length of Visible Light 13h 02m
Length of Day
12h 20m
Waxing Gibbous, 93% of the Moon is Illuminated
Apr 12
Waxing Gibbous
Apr 15
Full
Apr 22
Last Quarter
Apr 29
New
May 6
First Quarter

Hourly Weather History & Observations

Time (CST) Temp. Heat Index Dew Point Humidity Pressure Visibility Wind Dir Wind Speed Gust Speed Precip Events Conditions
6:00 AM 81 °F - 64 °F 46% 29.81 in 12 mi ENE 23.0 mph - -   Clear
6:00 AM 80.6 °F 82.3 °F 64.4 °F 58% 29.80 in - ENE 23.0 mph - N/A   Clear
7:00 AM 84.2 °F 85.0 °F 62.6 °F 48% 29.81 in - ENE 21.9 mph - N/A   Clear
8:00 AM 86.0 °F 86.6 °F 62.6 °F 45% 29.82 in - ENE 23.0 mph - N/A   Clear
9:00 AM 89 °F - 63 °F 32% 29.83 in 12 mi ENE 26.5 mph - -   Clear
9:00 AM 89.6 °F 90.1 °F 62.6 °F 40% 29.82 in - ENE 26.5 mph - N/A   Clear
10:00 AM 91.4 °F 92.1 °F 62.6 °F 38% 29.81 in - East 25.3 mph - N/A   Clear
11:00 AM 91.4 °F 93.2 °F 64.4 °F 41% 29.81 in - ENE 24.2 mph 35.7 mph N/A   Clear
12:00 PM 93 °F - 62 °F 26% 29.79 in 12 mi ENE 24.2 mph - -   Clear
12:00 PM 93.2 °F 94.1 °F 62.6 °F 36% 29.78 in - ENE 24.2 mph 36.8 mph N/A   Clear
1:00 PM 95.0 °F 96.0 °F 62.6 °F 34% 29.76 in - ENE 23.0 mph - N/A   Clear
2:00 PM 95.0 °F 95.2 °F 60.8 °F 32% 29.73 in - ENE 18.4 mph 29.9 mph N/A   Clear
3:00 PM 95 °F - 61 °F 23% 29.74 in 12 mi ENE 20.7 mph - -   Clear
3:00 PM 95.0 °F 95.2 °F 60.8 °F 32% 29.71 in - ENE 20.7 mph 32.2 mph N/A   Clear
4:00 PM 91.4 °F 91.4 °F 60.8 °F 36% 29.71 in - ENE 20.7 mph 32.2 mph N/A   Clear
5:00 PM 89.6 °F 90.1 °F 62.6 °F 40% 29.73 in - ENE 21.9 mph - N/A   Clear
6:00 PM 86 °F - 63 °F 36% 29.78 in 12 mi ENE 19.6 mph - -  
6:00 PM 86.0 °F 86.6 °F 62.6 °F 45% 29.75 in - ENE 19.6 mph - N/A   Clear
7:00 PM 84.2 °F 84.4 °F 60.8 °F 45% 29.78 in - ENE 18.4 mph - N/A   Clear
8:00 PM 82.4 °F 82.9 °F 60.8 °F 48% 29.80 in - ENE 17.3 mph - N/A   Clear